Regional Weather Roundup
Issued by NWS

Home | Current Version | Previous Version | Text Only | Print | Product List | Glossary Off
Versions: 1 2 3 4 5 6 7 8 9 10 11 12 13 14 15 16 17 18 19 20 21 22 23 24 25 26 27 28 29 30 31 32 33 34 35 36 37 38 39 40 41 42 43 44 45 46 47 48 49 50

450
ASUS45 KCYS 301010
RWRWY

WYOMING REGIONAL WEATHER ROUNDUP
NATIONAL WEATHER SERVICE CHEYENNE WY
400 AM MDT MON MAY 30 2016

NOTE:  "FAIR" INDICATES FEW OR NO CLOUDS BELOW 12,000 FEET
WITH NO SIGNIFICANT WEATHER AND/OR OBSTRUCTIONS TO VISIBILITY.

WYZ001-301100-
YELLOWSTONE NATIONAL PARK

CITY           SKY/WX    TMP DP  RH WIND       PRES   REMARKS
LK YELLOWSTONE   N/A     38  36  92 CALM      30.17F
W YELLOWSTONE  NOT AVBL

$$
WYZ002>013-054>058-071-098>099-301100-
NORTHERN WYOMING

CITY           SKY/WX    TMP DP  RH WIND       PRES   REMARKS
JACKSON        FAIR      45  39  81 CALM      30.12S
CODY           CLOUDY    59  36  41 W8        29.98F
GREYBULL       MOCLDY    62  42  47 N12       29.93R
WORLAND        FAIR      54  41  61 NE5       29.94R
SHERIDAN       FAIR      53  46  77 N9        29.90R
BUFFALO        MOCLDY    62  36  37 W6        29.93S
GILLETTE       FAIR      54  41  61 S12       29.89F
HULETT         FAIR      61  45  55 CALM      29.92F
NEWCASTLE      FAIR      55  41  58 SE13G18   29.95S

$$
WYZ014>020-022>026-101>103-301100-
CENTRAL WYOMING

CITY           SKY/WX    TMP DP  RH WIND       PRES   REMARKS
BIG PINEY      FAIR      42  39  89 N6        30.15F
PINEDALE       FAIR      41  41 100 CALM      30.17S
DUBOIS         FAIR      43  32  65 NW16      30.11R
LANDER         FAIR      57  36  45 NW6       30.00F
RIVERTON       FAIR      55  36  48 W12       30.02S
CASPER         FAIR      52  38  58 SW13      30.00F
DOUGLAS          N/A    N/A N/A N/A MISG      30.00S

$$
WYZ021-027>030-104>119-301100-
SOUTHERN WYOMING

CITY           SKY/WX    TMP DP  RH WIND       PRES   REMARKS
EVANSTON       MOCLDY    43  38  82 S8        30.20F
KEMMERER         N/A     43  37  81 NW5       30.18S
FORT BRIDGER   MOSUNNY   43  43 100 S9        30.21F
ROCK SPRINGS   FAIR      44  37  76 SW14      30.17S
DIXON          FAIR      41  38  90 CALM      30.18R
RAWLINS        FAIR      49  37  63 SW18      30.13S
SARATOGA       FAIR      41  34  75 S6        30.16S
LARAMIE        FAIR      42  35  76 SE3       30.15S
CHEYENNE       FAIR      46  37  71 W7        30.09S
TORRINGTON     FAIR      48  43  82 E8        30.00S
PINE BLUFFS    FAIR      45  43  93 W3        30.06F

$$




USA.gov is the U.S. government's official web portal to all federal, state and local government web resources and services.